DW1345 Weather Reports


time (UTC)temp
C
wind
direction
speed
KPH
gust
KPH
rain 1hr
cm
rain 24hr
cm
rain mn
cm
humidity
%
barometer
mb
20260903004512 7 229 0.0 0.0 0.00 0.00 0.00 94 1000.0
20260903003009 7 229 0.0 0.0 0.00 0.00 0.00 94 1000.1
20260903001517 6 229 0.0 0.0 0.00 0.00 0.00 94 1000.1
20260903000012 6 229 0.0 0.0 0.00 0.00 0.00 94 1000.0
20260902234505 7 229 0.0 0.0 0.00 0.00 0.00 94 1000.0
20260902233007 7 229 0.0 0.0 0.00 0.00 0.00 94 1000.1
20260902231505 7 229 0.0 0.0 0.00 0.00 0.00 93 1000.1
20260902230118 7 229 0.0 0.0 0.00 0.00 0.00 93 1000.3
20260902224613 7 229 0.0 0.0 0.00 0.00 0.00 93 1000.3
20260902223111 7 229 0.0 0.0 0.00 0.00 0.00 93 1000.2
20260902221603 7 229 0.0 0.0 0.00 0.00 0.00 93 1000.2
20260902220052 7 229 0.0 0.0 0.00 0.00 0.00 93 1000.1
20260902214616 7 229 0.0 0.0 0.00 0.00 0.00 93 1000.3
20260902213052 7 229 0.0 0.0 0.00 0.00 0.00 92 1000.4
20260902211552 7 229 0.0 0.0 0.00 0.00 0.00 92 1000.4
20260902210052 7 229 0.0 0.0 0.00 0.00 0.00 92 1000.4
20260902204548 8 229 0.0 0.0 0.00 0.00 0.00 91 1000.5
20260902203048 8 229 0.0 0.0 0.00 0.00 0.00 91 1000.6
20260902201558 8 229 0.0 0.0 0.00 0.00 0.00 91 1000.7
20260902200049 8 229 0.0 0.0 0.00 0.00 0.00 90 1000.7
20260902194551 9 230 0.0 0.0 0.00 0.00 0.00 89 1000.6
20260902193047 10 230 0.0 0.0 0.00 0.00 0.00 88 1000.5
20260902191546 10 230 0.0 0.0 0.00 0.00 0.00 88 1000.6
20260902190045 10 230 0.0 0.0 0.00 0.00 0.00 86 1000.5
20260902184545 11 230 0.0 0.0 0.00 0.00 0.00 85 1000.5
20260902183045 12 230 0.0 0.0 0.00 0.00 0.00 83 1000.6
20260902181544 12 230 0.0 0.0 0.00 0.00 0.00 81 1000.6
20260902180043 13 230 0.0 0.0 0.00 0.00 0.00 80 1000.6
20260902174549 13 230 0.0 0.0 0.00 0.00 0.00 79 1000.5
20260902173042 14 232 0.0 0.0 0.00 0.00 0.00 79 1000.7
20260902171544 15 233 0.0 0.0 0.00 0.00 0.00 78 1000.6
20260902170042 15 233 0.0 0.0 0.00 0.00 0.00 78 1000.7
20260902164547 15 233 1.6 0.0 0.00 0.00 0.00 75 1000.5
20260902163042 16 232 1.6 0.0 0.00 0.00 0.00 71 1000.6
20260902161540 16 227 0.0 0.0 0.00 0.00 0.00 66 1000.5
20260902160040 16 228 0.0 0.0 0.00 0.00 0.00 69 1000.6
20260902154540 16 228 0.0 0.0 0.00 0.00 0.00 69 1000.5
20260902153040 16 228 0.0 0.0 0.00 0.00 0.00 70 1000.5
20260902151537 16 228 0.0 0.0 0.00 0.00 0.00 71 1000.7
20260902150037 16 227 1.6 0.0 0.00 0.00 0.00 70 1000.8
20260902144536 17 221 3.2 0.0 0.00 0.00 0.00 68 1000.7
20260902143039 17 234 1.6 0.0 0.00 0.00 0.00 68 1000.7
20260902141537 17 195 1.6 0.0 0.00 0.00 0.00 68 1000.7
20260902140030 16 188 1.6 0.0 0.00 0.00 0.00 70 1000.7
20260902134532 16 223 1.6 0.0 0.00 0.00 0.00 71 1000.9
20260902133040 16 320 0.0 0.0 0.00 0.00 0.00 66 1000.9
20260902131524 16 313 0.0 0.0 0.00 0.00 0.00 66 1000.9
20260902130027 16 274 1.6 0.0 0.00 0.00 0.00 68 1001.0
20260902124521 15 302 1.6 0.0 0.00 0.00 0.00 67 1001.0
20260902123020 16 355 3.2 0.0 0.00 0.00 0.00 67 1001.2
20260902121517 16 76 1.6 0.0 0.00 0.00 0.00 68 1001.1
20260902120014 15 117 4.8 0.0 0.00 0.00 0.00 67 1001.2
20260902114512 15 96 4.8 0.0 0.00 0.00 0.00 67 1001.2
20260902113010 15 90 3.2 0.0 0.00 0.00 0.00 70 1001.4
20260902111507 15 94 4.8 0.0 0.00 0.00 0.00 69 1001.5
20260902110013 15 103 6.4 0.0 0.00 0.00 0.00 70 1001.7
20260902104504 15 91 4.8 0.0 0.00 0.00 0.00 71 1001.6
20260902103106 15 126 6.4 0.0 0.00 0.00 0.00 73 1001.8
20260902101557 14 63 4.8 0.0 0.00 0.00 0.00 73 1002.1
20260902100055 14 63 6.4 0.0 0.00 0.00 0.00 72 1001.9
20260902094551 13 80 8.0 0.0 0.00 0.00 0.00 74 1002.0
20260902093048 13 74 6.4 0.0 0.00 0.00 0.00 76 1002.1
20260902091545 13 79 6.4 0.0 0.00 0.00 0.00 77 1002.2
20260902090043 12 66 8.0 0.0 0.00 0.00 0.00 80 1002.4
20260902084542 12 79 6.4 0.0 0.00 0.00 0.00 79 1002.4
20260902083052 13 116 6.4 0.0 0.00 0.00 0.00 79 1002.5
20260902081541 12 76 6.4 0.0 0.00 0.00 0.00 83 1002.6
20260902080036 12 76 6.4 0.0 0.00 0.00 0.00 85 1002.4
20260902074535 12 82 6.4 0.0 0.00 0.00 0.00 85 1002.4
20260902073037 11 82 6.4 0.0 0.00 0.00 0.00 88 1002.5
20260902071528 11 60 3.2 0.0 0.00 0.00 0.00 91 1002.5
20260902070025 10 49 3.2 0.0 0.00 0.00 0.00 94 1002.7
20260902064522 10 69 3.2 0.0 0.00 0.00 0.00 95 1002.8
20260902063018 8 165 0.0 0.0 0.00 0.00 0.00 96 1002.9
20260902061533 8 165 0.0 0.0 0.00 0.00 0.00 95 1003.0
20260902060017 8 166 0.0 0.0 0.00 0.00 0.00 96 1003.1
20260902054521 7 166 0.0 0.0 0.00 0.00 0.00 96 1003.0
20260902053014 7 166 0.0 0.0 0.00 0.00 0.00 96 1003.2
20260902051513 7 166 0.0 0.0 0.00 0.00 0.00 95 1003.3
20260902050015 7 166 0.0 0.0 0.00 0.00 0.00 95 1003.2
20260902044522 7 166 0.0 0.0 0.00 0.00 0.00 96 1003.3
20260902043011 7 166 0.0 0.0 0.00 0.00 0.00 96 1003.5
20260902041510 6 165 0.0 0.0 0.00 0.00 0.00 96 1003.6
20260902040009 6 219 0.0 0.0 0.00 0.00 0.00 95 1003.5
20260902034508 6 219 0.0 0.0 0.00 0.00 0.00 95 1003.7
20260902033007 6 221 0.0 0.0 0.00 0.00 0.00 95 1003.7
20260902031504 6 225 0.0 0.0 0.00 0.00 0.00 95 1003.9
20260902030003 5 227 0.0 0.0 0.00 0.00 0.00 95 1004.1
20260902024502 5 228 0.0 0.0 0.00 0.00 0.00 95 1004.0
20260902023110 5 228 0.0 0.0 0.00 0.00 0.00 95 1004.3
20260902021557 5 228 0.0 0.0 0.00 0.00 0.00 95 1004.2
20260902020055 5 228 0.0 0.0 0.00 0.00 0.00 94 1004.3
20260902014554 6 228 0.0 0.0 0.00 0.00 0.00 95 1004.5
20260902013053 6 228 0.0 0.0 0.00 0.00 0.00 95 1004.6
20260902011612 6 228 0.0 0.0 0.00 0.00 0.00 94 1004.7
20260902010049 6 228 0.0 0.0 0.00 0.00 0.00 94 1004.8